Observations for Trim Patrick St
| Time | AQI | Temp °C | Hum % | Pres Pa | CO μg/m³ | H₂S μg/m³ | NO μg/m³ | NO₂ μg/m³ | O₃ μg/m³ | SO₂ μg/m³ | PM1 μg/m³ | PM2.5 μg/m³ | PM10 μg/m³ |
|---|---|---|---|---|---|---|---|---|---|---|---|---|---|
| Thursday 6 August 2026 | |||||||||||||
| 12:25 | 2 | 26.1 | 39 | 68,939 | 0 | 0 | 1.85 | 9.26 | 72.9 | 9.68 | 2 | 7.13 | 7.85 |
| 12:24 | 2 | 26.2 | 38 | 68,924 | 0 | 0 | 1.81 | 9.38 | 72.14 | 9.69 | 2 | 7.14 | 7.85 |
| 12:23 | 2 | 26.2 | 38 | 68,932 | 0 | 0 | 1.87 | 9.73 | 84.01 | 9.75 | 2 | 7.17 | 7.89 |
| 12:22 | 2 | 26.2 | 38 | 68,937 | 0 | 0 | 1.84 | 10.38 | 96.05 | 9.26 | 2 | 7.15 | 7.87 |
| 12:21 | 2 | 26.2 | 38 | 68,920 | 0 | 0 | 1.85 | 6.5 | 71.69 | 10.05 | 2 | 7.16 | 7.87 |
| 12:20 | 2 | 26.2 | 38 | 68,926 | 0 | 0 | 1.85 | 9.69 | 105.04 | 10.16 | 2 | 7.18 | 7.89 |
| 12:19 | 2 | 26.3 | 38 | 68,935 | 0 | 0 | 1.84 | 7.1 | 72.14 | 10.06 | 2 | 7.18 | 7.89 |
| 12:18 | 2 | 26.3 | 38 | 68,951 | 0 | 0 | 1.8 | 6.19 | 71.9 | 9.97 | 2 | 7.15 | 7.87 |
| 12:17 | 2 | 26.4 | 37 | 68,941 | 0 | 0 | 1.93 | 7.31 | 71.6 | 9.44 | 2 | 7.25 | 7.98 |
| 12:16 | 2 | 26.5 | 37 | 68,961 | 0 | 0 | 1.8 | 7.08 | 69.84 | 9.71 | 2 | 7.21 | 7.94 |
| 12:15 | 2 | 26.6 | 37 | 68,955 | 0 | 0 | 1.71 | 7.39 | 71.25 | 10.58 | 2 | 7.22 | 7.94 |
| 12:14 | 2 | 26.6 | 36 | 68,945 | 0 | 0 | 1.87 | 8.37 | 71.27 | 9.54 | 2 | 7.31 | 8.04 |
| 12:13 | 2 | 26.7 | 38 | 68,932 | 0 | 0 | 1.53 | 4.73 | 70.66 | 10.53 | 2 | 7.17 | 7.89 |
| 12:12 | 2 | 26.7 | 37 | 68,943 | 0 | 0 | 1.61 | 10.63 | 94.32 | 8.83 | 2 | 7.21 | 7.93 |
| 12:11 | 2 | 26.8 | 38 | 68,953 | 0 | 0 | 1.51 | 6.64 | 71.93 | 10.86 | 2 | 7.18 | 7.9 |
| 12:10 | 2 | 26.8 | 36 | 68,941 | 0 | 0 | 1.68 | 8.2 | 71.46 | 8.95 | 2 | 7.27 | 8 |
| 12:09 | 2 | 26.9 | 36 | 68,928 | 0 | 0 | 1.64 | 4.56 | 72.71 | 10.81 | 2 | 7.26 | 7.99 |
| 12:08 | 2 | 26.9 | 34 | 68,912 | 0 | 0 | 1.9 | 4.91 | 68.24 | 9.99 | 2 | 7.4 | 8.14 |
| 12:07 | 2 | 27 | 35 | 68,918 | 0 | 0 | 1.76 | 3.67 | 70.12 | 9.56 | 2 | 7.38 | 8.12 |
| 12:06 | 2 | 27 | 34 | 68,926 | 0 | 0 | 1.9 | 4.67 | 67.61 | 9.12 | 2 | 7.45 | 8.19 |